When you browse on this site, cookies collect data to enhance your experience and personalize the content and advertising you see.
Visit our Privacy Policy to learn more. By continuing to use the site, you agree to this use of cookies and data.

Meteo pe oră la Al Hillah

Astăzi, 14 August, Vineri

Timp Temperatura Precipitaţii Vânt Presiune Umiditate
00:00 +36°C° 0 mm 4 m/s 745 mmHg 19%
01:00 +35°C° 0 mm 4 m/s 744 mmHg 20%
02:00 +35°C° 0 mm 4 m/s 744 mmHg 21%
03:00 +34°C° 0 mm 4 m/s 744 mmHg 22%
04:00 +34°C° 0 mm 4 m/s 744 mmHg 23%
05:00 +33°C° 0 mm 5 m/s 744 mmHg 24%
06:00 +33°C° 0 mm 5 m/s 745 mmHg 25%
07:00 +35°C° 0 mm 6 m/s 745 mmHg 21%
08:00 +39°C° 0 mm 7 m/s 745 mmHg 18%
09:00 +41°C° 0 mm 7 m/s 745 mmHg 14%
10:00 +44°C° 0 mm 8 m/s 744 mmHg 12%
11:00 +48°C° 0 mm 8 m/s 744 mmHg 11%
12:00 +50°C° 0 mm 9 m/s 744 mmHg 9%
13:00 +50°C° 0 mm 9 m/s 743 mmHg 8%
14:00 +50°C° 0 mm 9 m/s 743 mmHg 8%
15:00 +51°C° 0 mm 9 m/s 742 mmHg 8%
16:00 +50°C° 0 mm 8 m/s 742 mmHg 8%
17:00 +49°C° 0 mm 8 m/s 742 mmHg 8%
18:00 +48°C° 0 mm 8 m/s 742 mmHg 8%
19:00 +45°C° 0 mm 7 m/s 742 mmHg 9%
20:00 +42°C° 0 mm 6 m/s 742 mmHg 11%
21:00 +39°C° 0 mm 5 m/s 742 mmHg 12%
22:00 +39°C° 0 mm 5 m/s 743 mmHg 13%
23:00 +37°C° 0 mm 5 m/s 743 mmHg 13%

Mâine, 15 August, Sâmbătă

Timp Temperatura Precipitaţii Vânt Presiune Umiditate
00:00 +36°C° 0 mm 6 m/s 743 mmHg 14%
01:00 +36°C° 0 mm 6 m/s 743 mmHg 15%
02:00 +35°C° 0 mm 5 m/s 742 mmHg 17%
03:00 +34°C° 0 mm 5 m/s 742 mmHg 18%
04:00 +33°C° 0 mm 5 m/s 743 mmHg 20%
05:00 +33°C° 0 mm 5 m/s 743 mmHg 22%
06:00 +32°C° 0 mm 5 m/s 744 mmHg 24%
07:00 +35°C° 0 mm 6 m/s 744 mmHg 22%
08:00 +38°C° 0 mm 6 m/s 744 mmHg 20%
09:00 +41°C° 0 mm 7 m/s 744 mmHg 18%
10:00 +43°C° 0 mm 8 m/s 744 mmHg 15%
11:00 +45°C° 0 mm 8 m/s 744 mmHg 13%
12:00 +48°C° 0 mm 9 m/s 744 mmHg 11%
13:00 +49°C° 0 mm 9 m/s 743 mmHg 10%
14:00 +49°C° 0 mm 9 m/s 743 mmHg 9%
15:00 +50°C° 0 mm 9 m/s 743 mmHg 8%
16:00 +49°C° 0 mm 8 m/s 742 mmHg 8%
17:00 +47°C° 0 mm 6 m/s 742 mmHg 8%
18:00 +46°C° 0 mm 5 m/s 742 mmHg 8%
19:00 +43°C° 0 mm 5 m/s 742 mmHg 10%
20:00 +41°C° 0 mm 5 m/s 743 mmHg 11%
21:00 +38°C° 0 mm 4 m/s 743 mmHg 13%
22:00 +39°C° 0 mm 5 m/s 743 mmHg 13%
23:00 +37°C° 0 mm 5 m/s 743 mmHg 14%

Poimâine, 16 August, Duminică

Timp Temperatura Precipitaţii Vânt Presiune Umiditate
00:00 +36°C° 0 mm 5 m/s 743 mmHg 14%
01:00 +35°C° 0 mm 5 m/s 743 mmHg 15%
02:00 +35°C° 0 mm 5 m/s 743 mmHg 15%
03:00 +34°C° 0 mm 5 m/s 743 mmHg 16%
04:00 +33°C° 0 mm 4 m/s 743 mmHg 17%
05:00 +33°C° 0 mm 4 m/s 743 mmHg 18%
06:00 +32°C° 0 mm 4 m/s 744 mmHg 18%
07:00 +35°C° 0 mm 5 m/s 744 mmHg 16%
08:00 +37°C° 0 mm 5 m/s 744 mmHg 14%
09:00 +41°C° 0 mm 6 m/s 745 mmHg 12%
10:00 +44°C° 0 mm 7 m/s 745 mmHg 11%
11:00 +45°C° 0 mm 7 m/s 745 mmHg 10%
12:00 +47°C° 0 mm 7 m/s 745 mmHg 8%
13:00 +49°C° 0 mm 8 m/s 744 mmHg 8%
14:00 +49°C° 0 mm 8 m/s 744 mmHg 7%
15:00 +50°C° 0 mm 8 m/s 744 mmHg 7%
16:00 +49°C° 0 mm 7 m/s 744 mmHg 7%
17:00 +48°C° 0 mm 6 m/s 743 mmHg 7%
18:00 +47°C° 0 mm 6 m/s 743 mmHg 8%
19:00 +45°C° 0 mm 5 m/s 744 mmHg 9%
20:00 +41°C° 0 mm 4 m/s 744 mmHg 10%
21:00 +38°C° 0 mm 4 m/s 744 mmHg 10%
22:00 +37°C° 0 mm 4 m/s 744 mmHg 11%
23:00 +37°C° 0 mm 4 m/s 744 mmHg 11%

17 August, Luni

Timp Temperatura Precipitaţii Vânt Presiune Umiditate
00:00 +37°C° 0 mm 4 m/s 744 mmHg 11%
01:00 +36°C° 0 mm 4 m/s 744 mmHg 12%
02:00 +35°C° 0 mm 4 m/s 744 mmHg 13%
03:00 +34°C° 0 mm 4 m/s 744 mmHg 14%
04:00 +33°C° 0 mm 4 m/s 745 mmHg 15%
05:00 +33°C° 0 mm 4 m/s 745 mmHg 16%
06:00 +32°C° 0 mm 4 m/s 745 mmHg 17%
07:00 +35°C° 0 mm 5 m/s 746 mmHg 15%
08:00 +39°C° 0 mm 6 m/s 746 mmHg 13%
09:00 +41°C° 0 mm 7 m/s 746 mmHg 11%
10:00 +45°C° 0 mm 7 m/s 746 mmHg 9%
11:00 +47°C° 0 mm 7 m/s 746 mmHg 8%
12:00 +50°C° 0 mm 8 m/s 745 mmHg 6%
13:00 +50°C° 0 mm 8 m/s 745 mmHg 6%
14:00 +50°C° 0 mm 8 m/s 745 mmHg 5%
15:00 +51°C° 0 mm 9 m/s 744 mmHg 5%
16:00 +50°C° 0 mm 8 m/s 744 mmHg 6%
17:00 +47°C° 0 mm 7 m/s 744 mmHg 6%
18:00 +46°C° 0 mm 5 m/s 744 mmHg 7%
19:00 +43°C° 0 mm 5 m/s 744 mmHg 8%
20:00 +41°C° 0 mm 5 m/s 744 mmHg 9%
21:00 +37°C° 0 mm 4 m/s 745 mmHg 11%
22:00 +37°C° 0 mm 4 m/s 744 mmHg 11%
23:00 +36°C° 0 mm 4 m/s 744 mmHg 12%

18 August, Marţi

Timp Temperatura Precipitaţii Vânt Presiune Umiditate
00:00 +35°C° 0 mm 4 m/s 744 mmHg 12%
01:00 +35°C° 0 mm 4 m/s 744 mmHg 14%
02:00 +34°C° 0 mm 5 m/s 744 mmHg 16%
03:00 +33°C° 0 mm 5 m/s 744 mmHg 18%
04:00 +33°C° 0 mm 5 m/s 744 mmHg 18%
05:00 +32°C° 0 mm 5 m/s 744 mmHg 19%
06:00 +32°C° 0 mm 6 m/s 744 mmHg 19%
07:00 +34°C° 0 mm 7 m/s 744 mmHg 18%
08:00 +38°C° 0 mm 8 m/s 744 mmHg 16%
09:00 +42°C° 0 mm 9 m/s 745 mmHg 15%
10:00 +44°C° 0 mm 9 m/s 744 mmHg 13%
11:00 +47°C° 0 mm 9 m/s 744 mmHg 11%
12:00 +49°C° 0 mm 9 m/s 744 mmHg 8%
13:00 +50°C° 0 mm 9 m/s 743 mmHg 8%
14:00 +50°C° 0 mm 9 m/s 743 mmHg 7%
15:00 +50°C° 0 mm 9 m/s 742 mmHg 6%
16:00 +49°C° 0 mm 8 m/s 742 mmHg 7%
17:00 +47°C° 0 mm 7 m/s 742 mmHg 7%
18:00 +46°C° 0 mm 6 m/s 742 mmHg 8%
19:00 +44°C° 0 mm 6 m/s 742 mmHg 9%
20:00 +41°C° 0 mm 5 m/s 742 mmHg 11%
21:00 +37°C° 0 mm 5 m/s 743 mmHg 12%
22:00 +37°C° 0 mm 5 m/s 743 mmHg 13%
23:00 +36°C° 0 mm 5 m/s 742 mmHg 14%

19 August, Miercuri

Timp Temperatura Precipitaţii Vânt Presiune Umiditate
00:00 +35°C° 0 mm 5 m/s 742 mmHg 14%
01:00 +35°C° 0 mm 5 m/s 742 mmHg 15%
02:00 +34°C° 0 mm 5 m/s 742 mmHg 16%
03:00 +33°C° 0 mm 5 m/s 742 mmHg 17%
04:00 +33°C° 0 mm 5 m/s 742 mmHg 18%
05:00 +32°C° 0 mm 5 m/s 742 mmHg 20%
06:00 +32°C° 0 mm 6 m/s 743 mmHg 22%
07:00 +35°C° 0 mm 6 m/s 743 mmHg 21%
08:00 +38°C° 0 mm 7 m/s 743 mmHg 20%
09:00 +40°C° 0 mm 8 m/s 744 mmHg 19%
10:00 +44°C° 0 mm 8 m/s 744 mmHg 15%
11:00 +46°C° 0 mm 8 m/s 743 mmHg 12%
12:00 +49°C° 0 mm 8 m/s 743 mmHg 9%
13:00 +49°C° 0 mm 8 m/s 743 mmHg 8%
14:00 +50°C° 0 mm 8 m/s 743 mmHg 7%
15:00 +50°C° 0 mm 8 m/s 742 mmHg 6%
16:00 +49°C° 0 mm 7 m/s 742 mmHg 6%
17:00 +47°C° 0 mm 6 m/s 742 mmHg 7%
18:00 +46°C° 0 mm 5 m/s 742 mmHg 7%
19:00 +43°C° 0 mm 4 m/s 742 mmHg 9%
20:00 +40°C° 0 mm 4 m/s 742 mmHg 10%
21:00 +37°C° 0 mm 3 m/s 743 mmHg 11%
22:00 +36°C° 0 mm 3 m/s 743 mmHg 13%
23:00 +35°C° 0 mm 3 m/s 743 mmHg 14%
Arată mai mult